Wind_Speed
7 5 4 4 5 6 8 8 8 9 10 11 13 16 18 21 22 22 22 21 20 18 17 17 17 18 18 19 20 21 22 24 25 26 27 28 29 30 31 31 31 31 31 31
5 4 4 3 3 4 4 6 7 7 8 9 10 13 16 18 19 19 20 18 16 15 15 16 17 17 18 19 20 22 23 24 26 27 28 30 30 31 32 33 33 32 32 31
5 4 4 4 3 4 4 4 5 5 5 5 7 8 11 13 13 13 12 12 11 12 13 14 15 16 18 19 20 22 23 25 26 27 28 29 30 31 32 32 33 32 31 30
4 4 3 3 4 4 4 3 3 3 4 4 5 5 6 5 4 3 5 5 7 9 11 13 15 17 18 19 20 22 23 24 25 26 28 29 29 30 30 31 31 30 30 29
5 5 4 4 4 4 4 4 4 3 3 3 5 6 3 3 3 1 1 2 5 8 10 12 14 16 17 18 19 21 22 24 25 26 27 28 28 29 29 29 29 30 30 30
6 4 4 4 5 4 4 4 4 3 3 4 5 6 4 3 2 2 1 3 6 8 10 12 14 15 16 18 19 21 22 24 25 26 26 27 27 27 28 29 29 30 30 31
7 4 4 5 5 5 5 5 4 4 3 3 4 5 4 4 3 3 3 5 7 9 10 12 14 15 17 19 21 22 24 25 26 26 27 27 27 28 28 29 30 30 31 32
7 6 5 5 5 6 6 6 6 5 4 3 3 3 3 3 4 5 6 7 8 10 11 13 14 16 18 20 22 23 25 26 26 27 28 28 28 29 30 30 31 32 32 33
7 6 5 5 5 6 6 7 7 6 5 4 2 2 3 4 6 7 7 8 10 11 12 14 15 17 19 21 23 25 26 27 28 29 29 29 30 31 31 32 33 34 35 36
8 7 7 6 6 6 6 7 7 6 5 3 2 2 4 6 7 8 10 11 11 13 14 15 16 18 21 23 25 27 28 29 30 30 30 31 32 33 34 35 36 37 37 38
9 8 7 7 7 7 7 7 8 6 5 5 3 3 6 7 9 10 12 13 13 15 16 17 19 21 23 25 27 29 30 31 32 32 33 33 34 36 37 37 38 39 40 40
9 8 8 8 8 8 8 9 9 8 6 6 6 6 7 9 11 12 14 15 16 17 18 19 21 23 25 27 28 30 31 33 34 34 35 35 37 38 39 40 41 41 41 42
10 9 8 9 9 10 11 11 11 10 8 8 8 9 11 12 14 15 17 18 19 19 20 21 22 24 26 28 30 31 33 34 35 36 37 38 39 40 41 42 43 43 43 43
10 10 10 11 12 13 12 13 13 12 11 10 10 11 13 15 17 18 19 20 21 21 21 22 23 25 27 29 31 33 35 36 37 38 39 40 41 42 43 44 45 45 45 44
11 11 12 13 14 14 13 14 14 13 13 13 12 14 16 18 20 21 22 22 21 21 22 23 24 26 28 30 33 35 37 38 39 39 40 41 43 44 45 46 46 46 45 45
12 12 13 13 14 14 13 14 14 14 15 14 14 16 18 20 22 23 23 22 22 22 23 24 25 28 30 32 34 37 39 39 40 40 41 42 44 45 46 46 47 46 46 46
13 13 14 13 15 15 15 15 14 14 14 14 15 18 20 22 23 23 23 22 22 23 24 25 27 29 32 34 36 39 40 41 41 41 42 43 45 46 47 47 47 47 46 45
14 14 14 13 13 14 13 14 13 13 13 14 17 19 21 23 24 23 23 22 23 23 25 26 29 31 33 35 37 39 41 41 42 42 43 44 46 47 48 48 47 47 46 45
14 15 14 13 13 11 11 13 13 13 14 16 18 20 22 23 23 23 23 23 24 25 26 28 30 32 34 36 38 40 41 41 42 43 44 45 47 48 48 48 47 46 46 44
15 15 16 15 14 12 11 13 13 14 14 17 19 21 22 23 23 23 24 24 25 26 28 30 32 34 35 37 39 40 41 42 43 44 45 46 48 48 48 47 46 46 45 44
16 17 17 17 16 13 14 15 15 16 17 18 19 21 23 24 25 25 25 26 27 28 30 31 33 35 37 38 40 41 42 43 44 45 46 48 49 48 48 47 47 46 45 43
19 19 19 19 18 18 18 18 18 19 19 20 22 23 24 25 26 27 27 28 29 30 31 33 35 37 38 40 41 42 43 44 45 46 48 49 49 49 48 47 47 45 44 43
22 22 22 22 21 21 21 21 21 22 22 23 24 25 26 26 27 28 29 30 31 32 33 35 37 39 40 41 42 43 44 46 47 48 49 50 49 49 48 47 45 44 43 41
23 25 26 26 24 24 24 24 24 25 26 26 26 27 28 28 29 30 31 32 33 34 36 37 39 40 42 43 43 44 46 48 50 51 51 50 49 49 48 47 45 43 42 40
23 27 29 29 27 27 26 26 27 27 28 29 29 29 30 31 31 31 32 34 35 36 38 39 40 42 43 44 45 46 49 51 52 52 52 51 50 48 47 46 44 42 41 38
25 29 31 30 29 30 29 28 29 29 30 31 31 31 32 32 32 33 34 35 37 38 40 41 42 43 44 45 47 49 51 53 54 54 53 51 49 47 45 44 42 41 39 37
Wind_Direction
345 343 315 289 273 263 258 262 266 267 273 276 276 276 275 278 276 275 276 277 281 286 296 300 304 309 312 315 316 317 317 316 316 314 313 311 310 308 307 304 302 300 297 295
348 349 348 309 311 299 283 267 269 267 273 278 277 280 285 284 279 274 273 272 276 284 295 300 304 312 316 318 319 319 318 317 316 314 313 311 310 308 307 306 304 302 300 297
334 341 342 336 322 313 305 288 277 279 281 286 296 301 302 296 282 273 266 266 274 285 297 304 309 315 317 318 317 317 316 314 312 311 310 308 307 306 305 304 303 301 299 297
329 319 319 322 313 321 320 318 305 299 306 310 311 321 324 327 309 264 252 265 279 295 301 307 312 314 315 317 317 316 314 313 312 311 310 309 308 307 306 305 304 303 301 300
332 313 308 314 313 326 333 327 327 337 353 349 343 347 343 338 352 15 290 282 292 302 307 309 310 312 314 316 316 317 317 316 315 314 314 313 312 311 310 309 308 306 305 304
327 321 313 321 339 340 330 320 315 312 338 3 6 12 30 22 28 38 327 303 304 305 305 307 310 314 316 318 320 321 322 322 322 321 320 320 319 318 317 316 315 313 311 308
310 306 307 316 329 338 337 333 326 315 308 337 360 10 29 36 35 8 326 305 302 304 307 311 314 316 320 324 326 326 327 328 328 329 328 327 326 324 322 321 319 317 315 312
301 286 290 304 321 335 341 341 340 336 323 329 339 352 356 350 328 318 309 307 309 312 313 315 318 322 326 329 331 333 334 335 335 334 333 332 331 329 327 325 323 321 318 315
302 290 285 295 312 325 338 339 338 338 334 332 326 316 303 300 300 303 307 311 315 316 317 319 323 328 332 335 337 339 340 339 338 336 334 333 332 331 330 328 326 324 321 318
296 291 284 285 297 311 322 325 331 334 342 352 331 295 291 288 297 303 308 313 317 320 323 325 329 334 337 340 341 342 341 339 337 335 334 333 332 332 331 330 328 326 324 321
292 285 282 284 294 302 304 310 317 324 331 336 332 306 294 297 302 305 308 314 319 323 326 330 335 337 340 342 342 342 340 338 336 335 334 334 333 333 332 331 330 327 325 322
287 281 278 280 283 286 287 297 306 310 315 320 319 317 306 307 308 310 314 318 322 326 331 334 336 338 340 341 341 340 338 337 336 335 334 334 333 333 332 331 330 328 326 323
284 278 275 269 271 277 284 292 302 305 305 310 315 318 312 312 311 313 316 321 325 329 332 334 335 336 338 338 338 337 336 336 335 335 334 333 333 332 332 331 329 328 326 324
281 277 273 269 271 276 279 284 290 293 298 304 309 313 312 311 312 315 319 322 325 328 329 331 332 334 336 336 336 336 336 335 334 333 333 332 332 331 331 330 329 328 326 324
277 279 276 274 274 275 278 280 283 287 292 298 303 306 308 309 313 318 321 323 324 326 326 328 331 332 333 334 334 335 335 334 333 333 332 332 331 331 330 330 329 327 326 325
273 277 278 278 279 282 284 285 287 290 294 298 298 300 303 307 312 317 320 321 323 324 325 327 329 331 332 333 333 334 333 333 332 332 331 331 331 330 329 329 328 327 326 324
273 274 276 278 280 286 290 289 293 296 296 295 295 298 303 307 313 316 318 320 321 322 324 326 328 329 330 331 331 331 331 331 331 331 331 330 330 330 329 328 328 327 326 325
274 275 276 278 281 289 295 292 294 297 298 295 296 300 304 308 313 316 317 318 319 321 323 324 326 328 329 329 329 330 330 330 330 330 330 330 330 329 329 329 328 327 326 325
275 274 274 277 281 287 290 290 294 298 301 299 301 302 304 308 312 315 317 318 319 320 321 323 325 326 327 327 328 328 329 330 330 330 330 329 329 329 328 328 328 327 327 326
272 271 271 275 280 284 288 287 294 295 299 298 300 301 305 309 313 316 317 317 317 319 320 322 323 324 324 325 326 327 329 329 330 330 329 329 329 329 328 328 328 328 327 327
269 268 271 274 279 287 291 291 295 299 301 301 302 304 307 310 313 314 315 315 316 317 319 320 321 322 322 323 325 326 328 329 329 329 329 329 329 328 328 328 328 328 328 327
268 271 272 275 280 287 289 293 295 297 300 303 304 306 307 309 310 311 312 313 314 315 316 318 320 321 322 323 325 326 328 329 329 328 327 328 328 328 328 328 328 328 328 328
266 270 275 278 282 287 289 292 295 297 300 302 304 305 305 307 308 308 309 311 313 314 315 317 319 321 322 324 325 326 327 328 328 328 328 328 328 329 329 329 329 329 329 329
267 273 276 279 282 284 286 290 293 296 298 300 301 302 303 304 305 305 307 309 311 313 314 316 319 321 322 324 325 326 327 327 327 327 328 328 327 328 330 329 329 329 330 329
269 270 272 275 278 280 283 287 289 292 295 297 298 299 300 301 302 303 305 308 310 312 314 316 319 321 322 323 325 326 326 327 327 327 327 327 327 327 329 329 329 329 330 330
263 266 269 273 276 279 283 285 288 291 292 293 294 295 297 298 300 302 304 307 309 311 313 315 318 320 321 322 323 324 324 325 326 326 326 327 327 327 328 329 329 330 331 331
Height
5864 5864 5863 5862 5862 5863 5863 5863 5863 5864 5863 5863 5862 5861 5860 5858 5856 5856 5856 5856 5856 5856 5856 5855 5855 5854 5852 5851 5849 5847 5845 5842 5840 5838 5835 5833 5830 5828 5825 5823 5820 5818 5816 5814
5866 5865 5864 5863 5863 5863 5863 5863 5862 5862 5861 5860 5859 5858 5856 5853 5852 5851 5851 5851 5852 5853 5853 5853 5852 5851 5850 5848 5846 5843 5841 5839 5836 5833 5830 5828 5825 5822 5819 5816 5813 5810 5808 5806
5866 5866 5864 5864 5864 5864 5863 5862 5861 5861 5860 5858 5857 5856 5853 5850 5847 5847 5848 5849 5850 5850 5851 5851 5850 5849 5847 5845 5843 5841 5838 5835 5832 5829 5826 5822 5819 5816 5812 5809 5806 5803 5801 5798
5866 5865 5865 5864 5863 5863 5863 5862 5861 5860 5858 5857 5856 5854 5852 5848 5846 5846 5847 5848 5849 5849 5850 5849 5848 5847 5845 5843 5840 5838 5835 5832 5828 5824 5821 5817 5813 5809 5806 5802 5799 5796 5793 5790
5866 5865 5864 5864 5863 5863 5862 5861 5860 5859 5858 5857 5855 5853 5851 5848 5847 5848 5848 5848 5848 5849 5848 5848 5847 5845 5843 5840 5838 5835 5831 5827 5823 5819 5815 5811 5807 5803 5799 5795 5792 5788 5785 5783
5867 5865 5864 5864 5863 5862 5861 5861 5860 5859 5858 5857 5855 5853 5851 5849 5849 5848 5848 5848 5848 5848 5848 5847 5845 5843 5841 5838 5834 5831 5827 5822 5818 5813 5809 5805 5801 5797 5793 5789 5785 5781 5778 5775
5867 5866 5865 5864 5863 5862 5861 5861 5860 5858 5857 5857 5855 5854 5853 5851 5850 5849 5849 5849 5848 5848 5847 5845 5843 5840 5837 5834 5830 5826 5821 5817 5812 5807 5803 5799 5794 5790 5786 5782 5778 5774 5770 5767
5866 5865 5864 5863 5863 5861 5860 5860 5859 5858 5857 5856 5855 5854 5854 5852 5851 5850 5849 5848 5847 5846 5844 5842 5840 5837 5833 5830 5825 5821 5816 5811 5806 5802 5797 5793 5789 5784 5780 5776 5772 5767 5763 5759
5865 5864 5863 5862 5862 5861 5859 5858 5858 5857 5856 5856 5855 5854 5853 5851 5850 5849 5848 5847 5845 5844 5842 5839 5836 5833 5829 5825 5820 5815 5811 5806 5801 5797 5792 5788 5783 5778 5774 5769 5765 5760 5755 5750
5863 5863 5862 5861 5861 5860 5859 5858 5857 5856 5855 5854 5854 5853 5852 5850 5849 5848 5846 5845 5843 5841 5839 5835 5832 5828 5824 5820 5815 5810 5805 5801 5796 5792 5787 5782 5777 5772 5767 5762 5757 5752 5747 5742
5862 5861 5861 5860 5859 5858 5858 5858 5856 5855 5854 5853 5852 5854 5850 5849 5847 5846 5844 5842 5840 5838 5835 5831 5827 5823 5819 5814 5809 5805 5801 5796 5792 5787 5782 5777 5771 5766 5760 5755 5749 5744 5738 5733
5859 5859 5858 5858 5857 5857 5856 5855 5855 5854 5853 5851 5851 5853 5848 5847 5845 5843 5841 5839 5836 5833 5829 5825 5822 5818 5814 5809 5805 5801 5796 5792 5786 5781 5776 5770 5765 5759 5753 5747 5741 5735 5729 5723
5857 5857 5856 5856 5857 5856 5854 5853 5852 5852 5851 5849 5848 5850 5845 5843 5841 5839 5837 5834 5831 5828 5824 5820 5817 5813 5809 5805 5801 5796 5791 5786 5781 5775 5770 5764 5758 5752 5746 5739 5733 5727 5720 5713
5855 5854 5854 5854 5853 5852 5852 5851 5850 5849 5848 5846 5845 5844 5842 5840 5837 5835 5832 5829 5826 5823 5819 5816 5812 5809 5804 5800 5796 5791 5786 5781 5775 5769 5763 5757 5751 5744 5738 5731 5724 5717 5711 5704
5852 5852 5851 5850 5849 5849 5848 5848 5846 5845 5844 5843 5842 5840 5838 5836 5833 5830 5827 5824 5821 5818 5815 5812 5808 5804 5800 5795 5791 5785 5780 5775 5769 5763 5757 5750 5743 5737 5730 5723 5715 5708 5701 5694
5849 5849 5848 5847 5846 5845 5845 5844 5842 5841 5840 5839 5838 5836 5834 5831 5828 5825 5822 5819 5817 5813 5810 5807 5803 5799 5795 5790 5785 5780 5774 5768 5762 5756 5750 5743 5736 5729 5722 5714 5707 5699 5691 5684
5846 5846 5845 5845 5843 5842 5841 5840 5839 5838 5836 5835 5834 5832 5829 5826 5823 5820 5817 5815 5812 5809 5805 5802 5798 5794 5789 5784 5779 5774 5768 5762 5756 5750 5743 5736 5729 5721 5713 5706 5698 5690 5682 5674
5843 5842 5841 5841 5841 5840 5840 5836 5835 5834 5833 5831 5829 5827 5824 5821 5818 5815 5813 5810 5807 5804 5800 5797 5792 5788 5784 5779 5773 5768 5762 5756 5749 5743 5736 5728 5721 5713 5705 5697 5689 5681 5673 5665
5839 5838 5838 5837 5836 5836 5836 5833 5832 5831 5829 5827 5824 5822 5819 5816 5813 5811 5808 5805 5802 5798 5795 5791 5787 5783 5778 5773 5767 5762 5756 5749 5742 5735 5728 5721 5713 5705 5696 5688 5680 5672 5663 5655
5834 5834 5834 5833 5832 5832 5833 5830 5828 5828 5826 5823 5820 5817 5814 5811 5808 5806 5803 5799 5796 5793 5789 5785 5781 5777 5772 5767 5761 5755 5749 5742 5735 5728 5720 5713 5705 5697 5688 5680 5671 5662 5654 5645
5830 5830 5829 5828 5828 5828 5827 5825 5824 5823 5821 5818 5814 5811 5809 5806 5803 5801 5797 5794 5790 5787 5783 5779 5775 5771 5766 5760 5754 5748 5741 5735 5728 5720 5713 5705 5697 5688 5680 5671 5662 5654 5645 5637
5825 5825 5824 5823 5823 5824 5821 5819 5818 5817 5814 5811 5809 5806 5803 5800 5797 5794 5791 5788 5784 5781 5777 5773 5768 5764 5758 5753 5747 5741 5734 5727 5720 5713 5705 5697 5688 5680 5671 5663 5654 5645 5637 5629
5819 5819 5818 5818 5819 5817 5815 5813 5812 5810 5808 5806 5803 5800 5798 5794 5791 5788 5784 5781 5778 5774 5770 5766 5761 5756 5751 5745 5739 5733 5726 5719 5712 5704 5696 5688 5679 5671 5663 5654 5646 5637 5629 5621
5814 5812 5811 5810 5810 5809 5808 5806 5805 5803 5801 5799 5797 5794 5791 5788 5785 5782 5778 5775 5771 5767 5763 5759 5754 5748 5743 5737 5731 5724 5718 5711 5704 5696 5688 5679 5671 5662 5654 5646 5638 5630 5622 5614
5808 5805 5803 5802 5803 5801 5801 5799 5798 5796 5794 5792 5790 5787 5785 5782 5778 5775 5771 5768 5764 5760 5755 5750 5745 5740 5734 5728 5722 5716 5710 5703 5695 5687 5679 5671 5663 5654 5646 5638 5630 5623 5615 5607
5799 5796 5795 5795 5796 5794 5794 5792 5791 5789 5787 5785 5782 5780 5777 5774 5771 5768 5764 5760 5756 5751 5746 5742 5737 5731 5726 5720 5714 5708 5701 5694 5687 5679 5670 5662 5654 5646 5639 5631 5623 5615 5608 5601